Ft Riley, KS

2:01 PM CDT on March 26, 2017 (GMT -0500)
Marshall Army Air Field

Weather History for KFRI - September, 2013

Change the Weather History Date:

Saturday, September 21, 2013

  Actual Average (KMHK) Record (KMHK)
Temperature  
Mean Temperature 64 °F -  
Max Temperature 82 °F 76 °F 96 °F (2005)
Min Temperature 47 °F 49 °F 30 °F (1999)
Growing Degree Days 14 (Base 50)    
Moisture  
Dew Point 51 °F    
Average Humidity 65    
Maximum Humidity 100    
Minimum Humidity 30    
Precipitation  
Precipitation 0.00 in - - ()
Sea Level Pressure  
Sea Level Pressure 29.99 in    
Wind  
Wind Speed 2 mph (South)    
Max Wind Speed 15 mph    
Max Gust Speed -    
Visibility 5 miles    
Events Fog    
Averages and records for this station are not official NWS values.
T = Trace of Precipitation, MM = Missing Value Source: NWS Daily Summary

Daily Weather History Graph

Daily Weather History Graph

Search for Another Location

Airport or City:

Trip Planner

Search our weather history database for the weather conditions in past years. The results will help you decide how hot, cold, wet, or windy it might be!

Date:

Astronomy

Sep. 21, 2013 Rise Set
Actual Time 7:14 AM CDT 7:25 PM CDT
Civil Twilight 6:47 AM CDT 7:51 PM CDT
Nautical Twilight 6:16 AM CDT 8:23 PM CDT
Astronomical Twilight 5:44 AM CDT 8:54 PM CDT
Moon 8:38 PM CDT (9/21) 9:32 AM CDT (9/21)
Length of Visible Light 13h 04m
Length of Day
12h 11m
Waning Gibbous, 94% of the Moon is Illuminated
Sep 21
Waning Gibbous
Sep 26
Last Quarter
Oct 4
New
Oct 11
First Quarter
Oct 18
Full

Hourly Weather History & Observations

Time (CDT) Temp. Dew Point Humidity Pressure Visibility Wind Dir Wind Speed Gust Speed Precip Events Conditions
12:18 AM 51.8 °F 50.0 °F 94% 30.03 in 2.5 mi NNE 1.2 mph - N/A   Clear
12:23 AM 50.0 °F 50.0 °F 100% 30.03 in 4.0 mi NE 2.3 mph - N/A   Clear
12:48 AM 51.8 °F 50.0 °F 94% 30.03 in 2.5 mi South 3.5 mph - N/A   Clear
12:58 AM 51.8 °F 50.0 °F 94% 30.02 in 1.8 mi Calm Calm - N/A   Clear
1:03 AM 53.6 °F 50.0 °F 88% 30.03 in 1.0 mi Calm Calm - N/A   Clear
1:08 AM 53.6 °F 50.0 °F 88% 30.03 in 1.0 mi Calm Calm - N/A   Clear
1:28 AM 53.6 °F 51.8 °F 94% 30.03 in 1.2 mi Calm Calm - N/A   Clear
1:33 AM 51.8 °F 50.0 °F 94% 30.03 in 3.0 mi Calm Calm - N/A   Clear
1:58 AM 50.2 °F 49.8 °F 99% 30.02 in 10.0 mi Calm Calm - N/A   Clear
2:58 AM 51.4 °F 50.5 °F 97% 30.01 in 8.0 mi Calm Calm - N/A   Clear
3:18 AM 50.0 °F 50.0 °F 100% 30.02 in 1.2 mi Calm Calm - N/A   Clear
3:23 AM 50.0 °F 50.0 °F 100% 30.02 in 0.8 mi Calm Calm - N/A   Clear
3:33 AM 50.0 °F 50.0 °F 100% 30.02 in 1.0 mi Calm Calm - N/A   Clear
3:38 AM 50.0 °F 50.0 °F 100% 30.03 in 1.8 mi SW 2.3 mph - N/A   Clear
3:43 AM 50.0 °F 50.0 °F 100% 30.02 in 1.0 mi SW 3.5 mph - N/A   Clear
3:48 AM 50.0 °F 50.0 °F 100% 30.02 in 0.5 mi SW 4.6 mph - N/A Fog Fog
3:53 AM 50.0 °F 50.0 °F 100% 30.02 in 0.8 mi Calm Calm - N/A   Clear
3:58 AM 49.6 °F 49.5 °F 99% 30.01 in 0.8 mi Calm Calm - N/A   Clear
4:18 AM 50.0 °F 50.0 °F 100% 30.02 in 1.0 mi Calm Calm - N/A   Clear
4:23 AM 50.0 °F 48.2 °F 94% 30.02 in 2.0 mi NE 2.3 mph - N/A   Clear
4:28 AM 48.2 °F 48.2 °F 100% 30.02 in 4.0 mi NNE 2.3 mph - N/A   Clear
4:58 AM 47.8 °F 47.8 °F 100% 30.00 in 10.0 mi NNE 4.6 mph - N/A   Clear
5:08 AM 48.2 °F 48.2 °F 100% 30.02 in 2.0 mi NNW 2.3 mph - N/A   Clear
5:13 AM 48.2 °F 48.2 °F 100% 30.02 in 1.5 mi North 1.2 mph - N/A   Clear
5:18 AM 48.2 °F 48.2 °F 100% 30.02 in 1.8 mi Calm Calm - N/A   Clear
5:28 AM 50.0 °F 48.2 °F 94% 30.02 in 2.5 mi Calm Calm - N/A   Clear
5:33 AM 50.0 °F 48.2 °F 94% 30.02 in 7.0 mi Calm Calm - N/A   Clear
5:58 AM 48.4 °F 48.4 °F 100% 30.02 in 8.0 mi Calm Calm - N/A   Clear
6:58 AM 47.7 °F 47.7 °F 100% 30.03 in 10.0 mi Calm Calm - N/A   Clear
7:58 AM 48.2 °F 48.2 °F 100% 30.04 in 10.0 mi Calm Calm - N/A   Clear
8:58 AM 54.1 °F 52.9 °F 95% 30.04 in 10.0 mi Calm Calm - N/A   Clear
9:58 AM 62.8 °F 55.0 °F 76% 30.03 in 10.0 mi NE 2.3 mph - N/A   Clear
10:28 AM 68.0 °F 55.4 °F 64% 30.03 in 1.8 mi ESE 3.5 mph - N/A   Haze
10:33 AM 69.8 °F 55.4 °F 60% 30.03 in 1.5 mi ESE 4.6 mph - N/A   Haze
10:53 AM 71.6 °F 53.6 °F 53% 30.03 in 1.8 mi Variable 2.3 mph - N/A   Haze
10:56 AM 71.6 °F 53.6 °F 53% 30.03 in 2.0 mi ESE 3.5 mph - N/A   Light Drizzle
10:58 AM 71.6 °F 53.6 °F 53% 30.02 in 2.0 mi Variable 3.5 mph - N/A   Light Drizzle
11:03 AM 71.6 °F 51.8 °F 50% 30.03 in 7.0 mi Calm Calm - N/A   Light Drizzle
11:14 AM 73.4 °F 51.8 °F 47% 30.03 in 10.0 mi Calm Calm - N/A   Clear
11:16 AM 73.4 °F 50.0 °F 44% 30.03 in 10.0 mi Variable 1.2 mph - N/A   Light Drizzle
11:31 AM 75.2 °F 51.8 °F 44% 30.02 in 10.0 mi Calm Calm - N/A   Clear
11:35 AM 75.2 °F 51.8 °F 44% 30.02 in 10.0 mi Variable 3.5 mph - N/A   Light Drizzle
11:40 AM 75.2 °F 51.8 °F 44% 30.02 in 10.0 mi Variable 2.3 mph - N/A   Clear
11:41 AM 75.2 °F 51.8 °F 44% 30.02 in 10.0 mi Variable 1.2 mph - N/A   Light Drizzle
11:53 AM 75.2 °F 51.8 °F 44% 30.01 in 10.0 mi Variable 3.5 mph - N/A   Clear
11:56 AM 75.2 °F 51.8 °F 44% 30.01 in 10.0 mi Variable 1.2 mph - N/A   Light Drizzle
11:58 AM 75.2 °F 51.8 °F 44% 29.99 in 10.0 mi Variable 2.3 mph - 0.00 in   Light Drizzle
12:17 PM 77.0 °F 51.8 °F 41% 30.01 in 10.0 mi SW 6.9 mph - N/A   Clear
12:58 PM 78.3 °F 51.1 °F 39% 29.97 in 10.0 mi SW 8.1 mph - 0.00 in   Clear
1:58 PM 80.6 °F 50.0 °F 34% 29.95 in 2.5 mi Variable 4.6 mph - N/A   Haze
2:03 PM 80.6 °F 48.2 °F 32% 29.97 in 1.2 mi SW 6.9 mph - N/A   Haze
2:08 PM 80.6 °F 50.0 °F 34% 29.97 in 1.0 mi SW 6.9 mph - N/A   Haze
2:13 PM 80.6 °F 50.0 °F 34% 29.97 in 1.2 mi Variable 3.5 mph - N/A   Haze
2:18 PM 80.6 °F 50.0 °F 34% 29.96 in 1.8 mi Calm Calm - N/A   Haze
2:23 PM 80.6 °F 50.0 °F 34% 29.96 in 2.5 mi Variable 2.3 mph - N/A   Haze
2:28 PM 80.6 °F 50.0 °F 34% 29.96 in 4.0 mi South 6.9 mph - N/A   Haze
2:58 PM 81.5 °F 50.2 °F 34% 29.93 in 3.0 mi Variable 5.8 mph - N/A   Haze
3:03 PM 82.4 °F 51.8 °F 35% 29.95 in 2.5 mi SSW 5.8 mph - N/A   Haze
3:08 PM 82.4 °F 50.0 °F 32% 29.94 in 2.0 mi Variable 3.5 mph - N/A   Haze
3:13 PM 80.6 °F 50.0 °F 34% 29.94 in 3.0 mi Variable 2.3 mph - N/A   Haze
3:33 PM 82.4 °F 50.0 °F 32% 29.93 in 2.5 mi Variable 5.8 mph - N/A   Haze
3:38 PM 82.4 °F 50.0 °F 32% 29.93 in 2.0 mi WSW 8.1 mph - N/A   Haze
3:43 PM 82.4 °F 50.0 °F 32% 29.93 in 1.5 mi WSW 5.8 mph - N/A   Haze
3:48 PM 82.4 °F 50.0 °F 32% 29.93 in 1.2 mi Variable 2.3 mph - N/A   Haze
3:53 PM 82.4 °F 50.0 °F 32% 29.93 in 2.0 mi SW 5.8 mph - N/A   Haze
3:58 PM 82.4 °F 50.0 °F 32% 29.91 in 2.5 mi Variable 3.5 mph - N/A   Haze
4:03 PM 82.4 °F 48.2 °F 30% 29.92 in 2.5 mi Variable 2.3 mph - N/A   Haze
4:08 PM 82.4 °F 48.2 °F 30% 29.92 in 4.0 mi Variable 4.6 mph - N/A   Haze
4:58 PM 82.4 °F 49.3 °F 31% 29.88 in 10.0 mi Calm Calm - N/A   Clear
5:58 PM 81.3 °F 48.2 °F 31% 29.88 in 10.0 mi SSE 4.6 mph - N/A   Clear
6:58 PM 77.0 °F 54.3 °F 45% 29.87 in 10.0 mi SE 8.1 mph - N/A   Clear
7:58 PM 72.5 °F 54.7 °F 53% 29.87 in 10.0 mi SE 10.4 mph - N/A   Clear
8:58 PM 70.2 °F 54.3 °F 57% 29.89 in 10.0 mi SE 12.7 mph - N/A   Clear
9:58 PM 68.7 °F 54.3 °F 60% 29.88 in 10.0 mi SSE 15.0 mph - N/A   Clear
10:58 PM 66.7 °F 54.5 °F 65% 29.89 in 10.0 mi SSE 12.7 mph - N/A   Clear
11:58 PM 65.3 °F 54.1 °F 67% 29.89 in 10.0 mi South 10.4 mph - N/A   Clear